• In Netherlands
  • List of Countries
  • For 7 days
  • Water Temperature
  • Satellite Maps
  • Weather Map
  • Weather Widgets
  • user-avatar
    Login

    Hourly Weather Sliven

    Today, 26 June, Monday

    Time Temperature Precipitation Wind Pressure Humidity
    00:00 +20°C° 0 mm 2 mps 731 mmHg 71%
    01:00 +20°C° 0 mm 2 mps 731 mmHg 72%
    02:00 +19°C° 0 mm 2 mps 731 mmHg 73%
    03:00 +20°C° 0 mm 1 mps 731 mmHg 74%
    04:00 +19°C° 0 mm 1 mps 730 mmHg 74%
    05:00 +19°C° 0 mm 1 mps 730 mmHg 75%
    06:00 +21°C° 0 mm 1 mps 731 mmHg 67%
    07:00 +24°C° 0 mm 1 mps 731 mmHg 60%
    08:00 +26°C° 0 mm 1 mps 731 mmHg 53%
    09:00 +28°C° 0 mm 1 mps 731 mmHg 49%
    10:00 +29°C° 0 mm 2 mps 731 mmHg 45%
    11:00 +31°C° 0 mm 2 mps 731 mmHg 41%
    12:00 +32°C° 0 mm 2 mps 730 mmHg 39%
    13:00 +33°C° 0 mm 1 mps 730 mmHg 37%
    14:00 +33°C° 0 mm 1 mps 730 mmHg 35%
    15:00 +34°C° 0 mm 2 mps 730 mmHg 36%
    16:00 +34°C° 0 mm 2 mps 729 mmHg 36%
    17:00 +32°C° 0 mm 2 mps 729 mmHg 37%
    18:00 +30°C° 0 mm 2 mps 729 mmHg 45%
    19:00 +27°C° 0 mm 2 mps 729 mmHg 53%
    20:00 +24°C° 0 mm 3 mps 728 mmHg 61%
    21:00 +23°C° 0 mm 2 mps 729 mmHg 63%
    22:00 +21°C° 0 mm 2 mps 729 mmHg 66%
    23:00 +20°C° 0 mm 2 mps 729 mmHg 69%

    Tomorrow, 27 June, Tuesday

    Time Temperature Precipitation Wind Pressure Humidity
    00:00 +20°C° 0 mm 2 mps 729 mmHg 70%
    01:00 +20°C° 0 mm 1 mps 730 mmHg 72%
    02:00 +20°C° 0 mm 1 mps 730 mmHg 73%
    03:00 +20°C° 0.1 mm 1 mps 730 mmHg 75%
    04:00 +20°C° 0.1 mm 1 mps 729 mmHg 76%
    05:00 +19°C° 0.1 mm 1 mps 729 mmHg 78%
    06:00 +22°C° 0 mm 1 mps 730 mmHg 71%
    07:00 +24°C° 0 mm 1 mps 730 mmHg 64%
    08:00 +26°C° 0 mm 2 mps 731 mmHg 56%
    09:00 +28°C° 0 mm 2 mps 731 mmHg 52%
    10:00 +30°C° 0 mm 2 mps 731 mmHg 47%
    11:00 +31°C° 0 mm 2 mps 731 mmHg 42%
    12:00 +32°C° 0.1 mm 1 mps 731 mmHg 40%
    13:00 +33°C° 0.1 mm 1 mps 730 mmHg 39%
    14:00 +33°C° 0.1 mm 1 mps 730 mmHg 37%
    15:00 +33°C° 0.2 mm 1 mps 730 mmHg 39%
    16:00 +33°C° 0.2 mm 1 mps 730 mmHg 40%
    17:00 +32°C° 0.2 mm 1 mps 730 mmHg 42%
    18:00 +30°C° 0.2 mm 1 mps 729 mmHg 49%
    19:00 +27°C° 0.2 mm 2 mps 729 mmHg 57%
    20:00 +25°C° 0.2 mm 2 mps 729 mmHg 65%
    21:00 +24°C° 0 mm 2 mps 729 mmHg 68%
    22:00 +23°C° 0 mm 2 mps 729 mmHg 72%
    23:00 +21°C° 0 mm 2 mps 730 mmHg 75%

    Day after tomorrow, 28 June, Wednesday

    Time Temperature Precipitation Wind Pressure Humidity
    00:00 +21°C° 0.1 mm 2 mps 730 mmHg 76%
    01:00 +21°C° 0.1 mm 2 mps 730 mmHg 77%
    02:00 +20°C° 0.1 mm 2 mps 730 mmHg 78%
    03:00 +21°C° 0 mm 1 mps 729 mmHg 79%
    04:00 +20°C° 0 mm 1 mps 729 mmHg 80%
    05:00 +20°C° 0 mm 1 mps 729 mmHg 81%
    06:00 +22°C° 0 mm 1 mps 730 mmHg 72%
    07:00 +25°C° 0 mm 1 mps 730 mmHg 64%
    08:00 +27°C° 0 mm 1 mps 730 mmHg 56%
    09:00 +29°C° 0.1 mm 1 mps 730 mmHg 51%
    10:00 +30°C° 0.1 mm 1 mps 730 mmHg 47%
    11:00 +32°C° 0.1 mm 1 mps 730 mmHg 42%
    12:00 +33°C° 0.1 mm 1 mps 730 mmHg 40%
    13:00 +34°C° 0.1 mm 1 mps 730 mmHg 38%
    14:00 +35°C° 0.1 mm 2 mps 729 mmHg 35%
    15:00 +35°C° 0.1 mm 2 mps 729 mmHg 37%
    16:00 +35°C° 0.1 mm 2 mps 729 mmHg 38%
    17:00 +34°C° 0.1 mm 2 mps 729 mmHg 40%
    18:00 +31°C° 0 mm 3 mps 729 mmHg 47%
    19:00 +28°C° 0 mm 3 mps 729 mmHg 55%
    20:00 +26°C° 0 mm 3 mps 729 mmHg 63%
    21:00 +25°C° 0 mm 3 mps 729 mmHg 68%
    22:00 +22°C° 0 mm 3 mps 729 mmHg 73%
    23:00 +21°C° 0 mm 3 mps 729 mmHg 78%

    29 June, Thursday

    Time Temperature Precipitation Wind Pressure Humidity
    00:00 +21°C° 0 mm 3 mps 729 mmHg 78%
    01:00 +20°C° 0 mm 2 mps 729 mmHg 79%
    02:00 +20°C° 0 mm 2 mps 729 mmHg 79%
    03:00 +20°C° 0 mm 2 mps 729 mmHg 79%
    04:00 +20°C° 0 mm 2 mps 729 mmHg 79%
    05:00 +19°C° 0 mm 2 mps 729 mmHg 79%
    06:00 +23°C° 0 mm 2 mps 729 mmHg 71%
    07:00 +25°C° 0 mm 1 mps 730 mmHg 63%
    08:00 +27°C° 0 mm 1 mps 730 mmHg 55%
    09:00 +29°C° 0 mm 1 mps 730 mmHg 50%
    10:00 +32°C° 0 mm 1 mps 730 mmHg 44%
    11:00 +34°C° 0 mm 1 mps 731 mmHg 38%
    12:00 +36°C° 0 mm 2 mps 730 mmHg 35%
    13:00 +37°C° 0 mm 2 mps 730 mmHg 32%
    14:00 +38°C° 0 mm 2 mps 729 mmHg 30%
    15:00 +38°C° 0 mm 3 mps 729 mmHg 30%
    16:00 +38°C° 0 mm 3 mps 729 mmHg 31%
    17:00 +37°C° 0 mm 4 mps 729 mmHg 32%
    18:00 +35°C° 0 mm 3 mps 729 mmHg 38%
    19:00 +31°C° 0 mm 3 mps 729 mmHg 44%
    20:00 +29°C° 0 mm 3 mps 729 mmHg 50%
    21:00 +28°C° 0 mm 3 mps 729 mmHg 53%
    22:00 +27°C° 0 mm 3 mps 729 mmHg 57%
    23:00 +25°C° 0 mm 2 mps 729 mmHg 61%

    30 June, Friday

    Time Temperature Precipitation Wind Pressure Humidity
    00:00 +25°C° 0 mm 2 mps 729 mmHg 62%
    01:00 +24°C° 0 mm 2 mps 729 mmHg 63%
    02:00 +24°C° 0 mm 1 mps 729 mmHg 65%
    03:00 +23°C° 0 mm 1 mps 729 mmHg 65%
    04:00 +23°C° 0 mm 1 mps 729 mmHg 65%
    05:00 +22°C° 0 mm 1 mps 729 mmHg 65%
    06:00 +26°C° 0 mm 1 mps 730 mmHg 57%
    07:00 +29°C° 0 mm 1 mps 731 mmHg 49%
    08:00 +32°C° 0 mm 1 mps 731 mmHg 41%
    09:00 +33°C° 0 mm 1 mps 731 mmHg 36%
    10:00 +35°C° 0 mm 1 mps 732 mmHg 32%
    11:00 +37°C° 0 mm 1 mps 732 mmHg 27%
    12:00 +39°C° 0 mm 1 mps 732 mmHg 25%
    13:00 +40°C° 0 mm 1 mps 731 mmHg 23%
    14:00 +41°C° 0 mm 1 mps 731 mmHg 22%
    15:00 +41°C° 0 mm 1 mps 731 mmHg 22%
    16:00 +40°C° 0 mm 1 mps 731 mmHg 22%
    17:00 +40°C° 0 mm 1 mps 730 mmHg 23%
    18:00 +36°C° 0 mm 1 mps 730 mmHg 28%
    19:00 +34°C° 0 mm 2 mps 730 mmHg 33%
    20:00 +29°C° 0 mm 2 mps 730 mmHg 38%
    21:00 +28°C° 0 mm 2 mps 730 mmHg 40%
    22:00 +28°C° 0 mm 2 mps 730 mmHg 42%
    23:00 +27°C° 0 mm 2 mps 731 mmHg 44%

    1 July, Saturday

    Time Temperature Precipitation Wind Pressure Humidity
    00:00 +26°C° 0 mm 2 mps 730 mmHg 45%
    01:00 +26°C° 0 mm 2 mps 730 mmHg 46%
    02:00 +25°C° 0 mm 2 mps 730 mmHg 47%
    03:00 +25°C° 0 mm 2 mps 730 mmHg 48%
    04:00 +24°C° 0 mm 2 mps 730 mmHg 49%
    05:00 +24°C° 0 mm 2 mps 730 mmHg 49%
    06:00 +27°C° 0 mm 2 mps 730 mmHg 45%
    07:00 +29°C° 0 mm 2 mps 730 mmHg 40%
    08:00 +32°C° 0 mm 2 mps 730 mmHg 35%
    09:00 +35°C° 0 mm 2 mps 730 mmHg 32%
    10:00 +36°C° 0 mm 3 mps 730 mmHg 29%
    11:00 +38°C° 0 mm 3 mps 730 mmHg 26%
    12:00 +40°C° 0 mm 4 mps 729 mmHg 25%
    13:00 +40°C° 0 mm 4 mps 729 mmHg 23%
    14:00 +41°C° 0 mm 4 mps 728 mmHg 22%
    15:00 +40°C° 0 mm 4 mps 728 mmHg 24%
    16:00 +39°C° 0 mm 5 mps 727 mmHg 26%
    17:00 +39°C° 0 mm 5 mps 727 mmHg 28%
    18:00 +35°C° 0 mm 5 mps 727 mmHg 36%
    19:00 +32°C° 0 mm 4 mps 726 mmHg 44%
    20:00 +28°C° 0 mm 4 mps 726 mmHg 52%
    21:00 +26°C° 0 mm 3 mps 726 mmHg 58%
    22:00 +25°C° 0 mm 3 mps 726 mmHg 64%
    23:00 +23°C° 0 mm 2 mps 726 mmHg 71%
    Show more